JBU154 KDCA-KBOS

Flight info

Callsign JBU154
Flight time 0h 58m
Altitude 27000
Route SOOKI6 SWANN BROSS Q419 JFK ROBUC3
Aircraft A320/M-SDE3FGHIRWY/LB1

Departure

Time 2026-05-04 22:41
Airport Ronald Reagan Washington National Airport (KDCA)

Arrival

Time 2026-05-04 23:40
Airport Boston Logan International Airport (KBOS)
Time Latitude Longitude Altitude Speed Heading
2026-05-04 22:21 38.85745 -77.04330 27 ft 0 kts 341°
2026-05-04 22:32 38.85744 -77.04330 27 ft 0 kts 341°
2026-05-04 22:32 38.85745 -77.04330 27 ft 0 kts 341°
2026-05-04 22:33 38.85732 -77.04325 27 ft 2 kts 341°
2026-05-04 22:33 38.85726 -77.04323 27 ft 2 kts 352°
2026-05-04 22:33 38.85724 -77.04322 28 ft 2 kts 358°
2026-05-04 22:33 38.85707 -77.04326 28 ft 2 kts 25°
2026-05-04 22:34 38.85694 -77.04337 28 ft 2 kts 51°
2026-05-04 22:34 38.85688 -77.04350 29 ft 0 kts 69°
2026-05-04 22:34 38.85686 -77.04359 29 ft 0 kts 72°
2026-05-04 22:36 38.85688 -77.04353 29 ft 2 kts 73°
2026-05-04 22:37 38.85698 -77.04308 28 ft 0 kts 74°
2026-05-04 22:37 38.85711 -77.04260 26 ft 11 kts 71°
2026-05-04 22:38 38.85731 -77.04179 25 ft 4 kts 73°
2026-05-04 22:38 38.85738 -77.04143 24 ft 2 kts 81°
2026-05-04 22:38 38.85698 -77.04069 23 ft 9 kts 129°
2026-05-04 22:38 38.85713 -77.03982 22 ft 12 kts 34°
2026-05-04 22:39 38.85805 -77.03982 22 ft 13 kts
2026-05-04 22:39 38.85906 -77.03986 21 ft 15 kts
2026-05-04 22:39 38.85989 -77.03958 19 ft 3 kts 17°
2026-05-04 22:39 38.86007 -77.03951 19 ft 3 kts 17°
2026-05-04 22:40 38.86064 -77.03928 18 ft 9 kts 23°
2026-05-04 22:40 38.86080 -77.03873 18 ft 2 kts 136°
2026-05-04 22:40 38.86064 -77.03870 18 ft 11 kts 175°
2026-05-04 22:40 38.85803 -77.03844 20 ft 69 kts 175°
2026-05-04 22:41 38.85091 -77.03774 24 ft 129 kts 175°
2026-05-04 22:41 38.84058 -77.03671 275 ft 154 kts 179°
2026-05-04 22:41 38.82943 -77.03526 895 ft 157 kts 175°
2026-05-04 22:41 38.81869 -77.03295 1584 ft 157 kts 175°
2026-05-04 22:42 38.80772 -77.03050 2083 ft 164 kts 175°
2026-05-04 22:42 38.79546 -77.02786 2425 ft 181 kts 175°
2026-05-04 22:42 38.78230 -77.02502 2780 ft 198 kts 175°
2026-05-04 22:42 38.76797 -77.01982 3047 ft 229 kts 154°
2026-05-04 22:43 38.75585 -77.00435 3587 ft 253 kts 123°
2026-05-04 22:43 38.75103 -76.98143 4099 ft 277 kts 94°
2026-05-04 22:43 38.75115 -76.95581 4682 ft 288 kts 91°
2026-05-04 22:43 38.75289 -76.92979 5410 ft 296 kts 73°
2026-05-04 22:44 38.76324 -76.90735 6247 ft 296 kts 41°
2026-05-04 22:44 38.78040 -76.89235 7148 ft 293 kts 26°
2026-05-04 22:44 38.79867 -76.87917 8056 ft 295 kts 25°
2026-05-04 22:44 38.81667 -76.86594 8966 ft 295 kts 25°
2026-05-04 22:45 38.83459 -76.85238 9858 ft 295 kts 25°
2026-05-04 22:45 38.87031 -76.82194 10950 ft 322 kts 33°
2026-05-04 22:45 38.88784 -76.80284 11269 ft 341 kts 37°
2026-05-04 22:46 38.90615 -76.78170 11596 ft 358 kts 38°
2026-05-04 22:46 38.92508 -76.75958 12150 ft 366 kts 38°
2026-05-04 22:46 38.94426 -76.73714 12820 ft 369 kts 38°
2026-05-04 22:46 38.96358 -76.71465 13450 ft 373 kts 38°
2026-05-04 22:47 38.98313 -76.69193 14088 ft 377 kts 38°
2026-05-04 22:47 39.00267 -76.66922 14712 ft 380 kts 39°
2026-05-04 22:47 39.02216 -76.64536 15338 ft 384 kts 41°
2026-05-04 22:47 39.04162 -76.62060 15971 ft 387 kts 41°
2026-05-04 22:48 39.08608 -76.56368 17313 ft 391 kts 41°
2026-05-04 22:48 39.10503 -76.53719 17785 ft 400 kts 51°
2026-05-04 22:48 39.11870 -76.50516 18288 ft 408 kts 67°
2026-05-04 22:48 39.12559 -76.46938 18872 ft 412 kts 79°
2026-05-04 22:49 39.12968 -76.43188 19448 ft 415 kts 81°
2026-05-04 22:49 39.17602 -75.99499 24613 ft 420 kts 78°
2026-05-04 22:49 39.18129 -75.95717 24790 ft 429 kts 77°
2026-05-04 22:49 39.18710 -75.91812 24960 ft 436 kts 72°
2026-05-04 22:50 39.19879 -75.88146 25149 ft 437 kts 56°
2026-05-04 22:50 39.21788 -75.85015 25496 ft 433 kts 40°
2026-05-04 22:50 39.24108 -75.82423 25934 ft 432 kts 36°
2026-05-04 22:50 39.26449 -75.79932 26368 ft 433 kts 36°
2026-05-04 22:51 39.28799 -75.77423 26799 ft 434 kts 36°
2026-05-04 22:51 39.31169 -75.74870 26895 ft 435 kts 36°
2026-05-04 22:51 39.48539 -75.55861 26927 ft 435 kts 36°
2026-05-04 22:51 39.79046 -75.21952 26901 ft 436 kts 38°
2026-05-04 22:52 39.81221 -75.19121 26899 ft 438 kts 44°
2026-05-04 22:52 39.83249 -75.16056 26900 ft 439 kts 46°
2026-05-04 22:52 39.91758 -75.02891 26930 ft 439 kts 45°
2026-05-04 22:52 39.96862 -74.95040 26918 ft 439 kts 47°
2026-05-04 22:53 39.98709 -74.91788 26908 ft 441 kts 51°
2026-05-04 22:53 40.00457 -74.88465 26906 ft 442 kts 52°
2026-05-04 22:53 40.02186 -74.85106 26904 ft 443 kts 52°
2026-05-04 22:53 40.16442 -74.57048 26925 ft 443 kts 52°
2026-05-04 22:54 40.18145 -74.53686 26915 ft 442 kts 51°
2026-05-04 22:54 40.20026 -74.50480 26910 ft 438 kts 45°
2026-05-04 22:54 40.22156 -74.47543 26909 ft 435 kts 38°
2026-05-04 22:54 40.24454 -74.44924 26908 ft 434 kts 35°
2026-05-04 22:55 40.26798 -74.42422 26911 ft 434 kts 34°
2026-05-04 22:55 40.29204 -74.39881 26911 ft 435 kts 34°
2026-05-04 22:55 40.31580 -74.37363 26912 ft 435 kts 34°
2026-05-04 22:55 40.33953 -74.34837 26911 ft 435 kts 35°
2026-05-04 22:56 40.36309 -74.32320 26908 ft 435 kts 35°
2026-05-04 22:56 40.38697 -74.29765 26906 ft 435 kts 35°
2026-05-04 22:56 40.41056 -74.27236 26905 ft 435 kts 35°
2026-05-04 22:56 40.43402 -74.24717 26904 ft 434 kts 35°
2026-05-04 22:57 40.45759 -74.22181 26903 ft 435 kts 35°
2026-05-04 22:57 40.48136 -74.19622 26900 ft 435 kts 35°
2026-05-04 22:57 40.50478 -74.17098 26896 ft 435 kts 35°
2026-05-04 22:57 40.52797 -74.14497 26889 ft 438 kts 40°
2026-05-04 22:58 40.54743 -74.11400 26891 ft 444 kts 52°
2026-05-04 22:58 40.56198 -74.07744 26894 ft 451 kts 65°
2026-05-04 22:58 40.57200 -74.03807 26899 ft 453 kts 69°
2026-05-04 22:58 40.58093 -73.99836 26899 ft 453 kts 70°
2026-05-04 22:59 40.58981 -73.95833 26896 ft 453 kts 70°
2026-05-04 22:59 40.59878 -73.91862 26892 ft 453 kts 69°
2026-05-04 22:59 40.60802 -73.87837 26898 ft 452 kts 69°
2026-05-04 22:59 40.61739 -73.83790 26900 ft 452 kts 69°
2026-05-04 23:00 40.62803 -73.79792 26895 ft 449 kts 62°
2026-05-04 23:00 40.64272 -73.76131 26903 ft 443 kts 53°
2026-05-04 23:00 40.66093 -73.72915 26905 ft 438 kts 45°
2026-05-04 23:00 40.68142 -73.69881 26905 ft 438 kts 43°
2026-05-04 23:01 40.70231 -73.66881 26907 ft 438 kts 43°
2026-05-04 23:01 40.72293 -73.63917 26905 ft 438 kts 43°
2026-05-04 23:01 40.74403 -73.60863 26904 ft 438 kts 43°
2026-05-04 23:01 40.76475 -73.57843 26907 ft 438 kts 43°
2026-05-04 23:02 40.78542 -73.54818 26906 ft 438 kts 43°
2026-05-04 23:02 40.80580 -73.51826 26907 ft 438 kts 43°
2026-05-04 23:02 40.82669 -73.48751 26910 ft 438 kts 43°
2026-05-04 23:02 40.84719 -73.45733 26911 ft 437 kts 43°
2026-05-04 23:03 40.86769 -73.42712 26908 ft 437 kts 43°
2026-05-04 23:03 40.88807 -73.39708 26906 ft 437 kts 43°
2026-05-04 23:03 40.90877 -73.36652 26903 ft 437 kts 43°
2026-05-04 23:03 40.92921 -73.33631 26754 ft 437 kts 44°
2026-05-04 23:04 40.94972 -73.30595 26473 ft 435 kts 44°
2026-05-04 23:04 40.96987 -73.27608 26197 ft 433 kts 44°
2026-05-04 23:04 40.99036 -73.24568 25919 ft 431 kts 44°
2026-05-04 23:04 41.01026 -73.21615 25649 ft 430 kts 43°
2026-05-04 23:05 41.03033 -73.18634 25377 ft 430 kts 44°
2026-05-04 23:05 41.05085 -73.15587 25096 ft 432 kts 44°
2026-05-04 23:05 41.07125 -73.12550 24816 ft 430 kts 44°
2026-05-04 23:05 41.09129 -73.09565 24542 ft 429 kts 44°
2026-05-04 23:06 41.11146 -73.06554 24263 ft 427 kts 44°
2026-05-04 23:06 41.13136 -73.03582 23987 ft 426 kts 44°
2026-05-04 23:06 41.15134 -73.00595 23712 ft 425 kts 44°
2026-05-04 23:06 41.17156 -72.97568 23416 ft 424 kts 44°
2026-05-04 23:07 41.19133 -72.94579 23082 ft 424 kts 46°
2026-05-04 23:07 41.20952 -72.91378 22899 ft 424 kts 52°
2026-05-04 23:07 41.22506 -72.88013 22892 ft 428 kts 57°
2026-05-04 23:07 41.23917 -72.84435 22898 ft 429 kts 59°
2026-05-04 23:08 41.25300 -72.80798 22895 ft 430 kts 59°
2026-05-04 23:08 41.26671 -72.77171 22893 ft 429 kts 59°
2026-05-04 23:08 41.28033 -72.73573 22892 ft 430 kts 59°
2026-05-04 23:08 41.31654 -72.64018 22908 ft 430 kts 59°
2026-05-04 23:09 41.33036 -72.60390 22899 ft 429 kts 59°
2026-05-04 23:09 41.34390 -72.56832 22890 ft 429 kts 59°
2026-05-04 23:09 41.35741 -72.53274 22891 ft 429 kts 59°
2026-05-04 23:09 41.38138 -72.46949 22896 ft 429 kts 59°
2026-05-04 23:10 41.39493 -72.43368 22896 ft 429 kts 59°
2026-05-04 23:10 41.40870 -72.39720 22889 ft 428 kts 59°
2026-05-04 23:10 41.42224 -72.36131 22889 ft 428 kts 59°
2026-05-04 23:10 41.43599 -72.32481 22885 ft 428 kts 60°
2026-05-04 23:11 41.44936 -72.28919 22860 ft 428 kts 60°
2026-05-04 23:11 41.46288 -72.25325 22703 ft 427 kts 60°
2026-05-04 23:11 41.47626 -72.21761 22042 ft 421 kts 60°
2026-05-04 23:11 41.48940 -72.18223 21703 ft 421 kts 60°
2026-05-04 23:12 41.50263 -72.14615 21035 ft 421 kts 61°
2026-05-04 23:12 41.51565 -72.11043 19960 ft 414 kts 61°
2026-05-04 23:12 41.52828 -72.07581 18925 ft 409 kts 61°
2026-05-04 23:12 41.54102 -72.04087 17947 ft 405 kts 61°
2026-05-04 23:13 41.55341 -72.00660 17378 ft 402 kts 63°
2026-05-04 23:13 41.56480 -71.97107 17124 ft 403 kts 65°
2026-05-04 23:13 41.57557 -71.93527 16878 ft 402 kts 66°
2026-05-04 23:13 41.58612 -71.89980 16620 ft 400 kts 66°
2026-05-04 23:14 41.59665 -71.86437 16362 ft 399 kts 66°
2026-05-04 23:14 41.60712 -71.82903 16094 ft 397 kts 66°
2026-05-04 23:14 41.61749 -71.79388 15819 ft 395 kts 66°
2026-05-04 23:14 41.62770 -71.75923 15574 ft 393 kts 66°
2026-05-04 23:15 41.63791 -71.72462 15321 ft 392 kts 66°
2026-05-04 23:15 41.64813 -71.68986 15046 ft 390 kts 66°
2026-05-04 23:15 41.65821 -71.65559 14732 ft 388 kts 66°
2026-05-04 23:15 41.66825 -71.62138 14433 ft 383 kts 66°
2026-05-04 23:16 41.67813 -71.58765 14103 ft 376 kts 66°
2026-05-04 23:16 41.68751 -71.55562 13803 ft 361 kts 66°
2026-05-04 23:16 41.69667 -71.52428 13539 ft 345 kts 66°
2026-05-04 23:16 41.70546 -71.49417 13286 ft 337 kts 66°
2026-05-04 23:17 41.71410 -71.46458 13033 ft 336 kts 66°
2026-05-04 23:17 41.72325 -71.43529 12788 ft 333 kts 62°
2026-05-04 23:17 41.73391 -71.40734 12525 ft 332 kts 57°
2026-05-04 23:17 41.74539 -71.38036 12272 ft 330 kts 56°
2026-05-04 23:18 41.78694 -71.28410 11407 ft 326 kts 57°
2026-05-04 23:18 41.79838 -71.25719 11158 ft 320 kts 57°
2026-05-04 23:18 41.80958 -71.23080 11101 ft 319 kts 57°
2026-05-04 23:18 41.84143 -71.15575 11078 ft 317 kts 57°
2026-05-04 23:19 41.85239 -71.12992 11079 ft 309 kts 57°
2026-05-04 23:19 41.86336 -71.10432 11086 ft 308 kts 57°
2026-05-04 23:19 41.87447 -71.07869 11085 ft 308 kts 57°
2026-05-04 23:19 41.88566 -71.05290 11096 ft 309 kts 57°
2026-05-04 23:20 41.89681 -71.02713 11089 ft 309 kts 57°
2026-05-04 23:20 41.90767 -71.00199 11087 ft 309 kts 57°
2026-05-04 23:20 41.91840 -70.97712 11080 ft 309 kts 57°
2026-05-04 23:20 41.92927 -70.95189 11084 ft 309 kts 57°
2026-05-04 23:21 41.94019 -70.92650 11037 ft 308 kts 57°
2026-05-04 23:21 41.95099 -70.90138 11047 ft 308 kts 56°
2026-05-04 23:21 41.96183 -70.87614 10753 ft 307 kts 57°
2026-05-04 23:21 41.97263 -70.85092 10334 ft 302 kts 56°
2026-05-04 23:22 41.98302 -70.82666 9975 ft 297 kts 56°
2026-05-04 23:22 41.99353 -70.80220 9616 ft 296 kts 56°
2026-05-04 23:22 42.00407 -70.77796 9261 ft 295 kts 54°
2026-05-04 23:22 42.01588 -70.75526 8990 ft 291 kts 47°
2026-05-04 23:23 42.02929 -70.73420 8968 ft 293 kts 44°
2026-05-04 23:23 42.04298 -70.71379 8802 ft 293 kts 43°
2026-05-04 23:23 42.05685 -70.69323 8625 ft 293 kts 43°
2026-05-04 23:23 42.07079 -70.67250 8447 ft 292 kts 44°
2026-05-04 23:24 42.08469 -70.65172 8269 ft 292 kts 44°
2026-05-04 23:24 42.09871 -70.63090 8090 ft 290 kts 41°
2026-05-04 23:24 42.11533 -70.61505 8062 ft 281 kts 19°
2026-05-04 23:24 42.13438 -70.60758 7925 ft 278 kts
2026-05-04 23:25 42.15350 -70.60246 7679 ft 275 kts
2026-05-04 23:25 42.17258 -70.59759 7361 ft 275 kts
2026-05-04 23:25 42.19165 -70.59259 7062 ft 274 kts
2026-05-04 23:25 42.21069 -70.58746 6769 ft 273 kts
2026-05-04 23:26 42.22935 -70.58235 6506 ft 273 kts
2026-05-04 23:26 42.24836 -70.57709 6211 ft 272 kts
2026-05-04 23:26 42.26693 -70.57190 5922 ft 271 kts
2026-05-04 23:26 42.28581 -70.56663 5622 ft 272 kts
2026-05-04 23:27 42.30447 -70.56141 5374 ft 271 kts
2026-05-04 23:27 42.32315 -70.56007 5066 ft 260 kts 340°
2026-05-04 23:27 42.33886 -70.57107 5051 ft 251 kts 313°
2026-05-04 23:27 42.35167 -70.58811 5042 ft 250 kts 310°
2026-05-04 23:28 42.36405 -70.60477 5045 ft 251 kts 311°
2026-05-04 23:28 42.37683 -70.62181 5016 ft 251 kts 311°
2026-05-04 23:28 42.38947 -70.63852 4988 ft 251 kts 311°
2026-05-04 23:28 42.40236 -70.65555 5001 ft 252 kts 311°
2026-05-04 23:29 42.41519 -70.67248 4992 ft 251 kts 311°
2026-05-04 23:29 42.42811 -70.68951 5012 ft 252 kts 311°
2026-05-04 23:29 42.44101 -70.70653 5019 ft 252 kts 311°
2026-05-04 23:29 42.45381 -70.72339 5022 ft 252 kts 311°
2026-05-04 23:30 42.46676 -70.74049 5021 ft 252 kts 311°
2026-05-04 23:30 42.47953 -70.75735 5021 ft 252 kts 311°
2026-05-04 23:30 42.49258 -70.77461 5026 ft 252 kts 311°
2026-05-04 23:30 42.50496 -70.79088 5015 ft 230 kts 311°
2026-05-04 23:31 42.51654 -70.80595 5024 ft 225 kts 314°
2026-05-04 23:31 42.53062 -70.81551 4724 ft 233 kts 347°
2026-05-04 23:31 42.54707 -70.81224 4289 ft 242 kts 15°
2026-05-04 23:31 42.56319 -70.80363 3911 ft 238 kts 15°
2026-05-04 23:32 42.57885 -70.79548 3557 ft 233 kts 14°
2026-05-04 23:32 42.59454 -70.79029 3186 ft 219 kts 348°
2026-05-04 23:32 42.60791 -70.79658 3057 ft 189 kts 309°
2026-05-04 23:32 42.61427 -70.81118 3036 ft 174 kts 272°
2026-05-04 23:33 42.61369 -70.82753 3041 ft 172 kts 259°
2026-05-04 23:33 42.61121 -70.84387 3023 ft 171 kts 251°
2026-05-04 23:33 42.60579 -70.85838 3021 ft 172 kts 238°
2026-05-04 23:33 42.59885 -70.87203 3022 ft 172 kts 237°
2026-05-04 23:34 42.58843 -70.89145 3022 ft 174 kts 225°
2026-05-04 23:34 42.57797 -70.90065 3029 ft 179 kts 211°
2026-05-04 23:34 42.56626 -70.90737 3029 ft 180 kts 207°
2026-05-04 23:34 42.55425 -70.91347 3024 ft 180 kts 206°
2026-05-04 23:35 42.54206 -70.91942 3017 ft 181 kts 206°
2026-05-04 23:35 42.52995 -70.92527 3016 ft 181 kts 205°
2026-05-04 23:35 42.51783 -70.93111 2897 ft 181 kts 206°
2026-05-04 23:35 42.50602 -70.93678 2755 ft 174 kts 206°
2026-05-04 23:36 42.49453 -70.94231 2497 ft 170 kts 206°
2026-05-04 23:36 42.48347 -70.94762 2274 ft 159 kts 206°
2026-05-04 23:36 42.47340 -70.95248 2063 ft 147 kts 207°
2026-05-04 23:36 42.46408 -70.95698 1841 ft 132 kts 207°
2026-05-04 23:37 42.45581 -70.96098 1646 ft 121 kts 207°
2026-05-04 23:37 42.44779 -70.96491 1502 ft 121 kts 206°
2026-05-04 23:37 42.43990 -70.96874 1357 ft 120 kts 206°
2026-05-04 23:37 42.43204 -70.97256 1212 ft 120 kts 205°
2026-05-04 23:38 42.42416 -70.97637 1067 ft 119 kts 205°
2026-05-04 23:38 42.41634 -70.98016 915 ft 119 kts 204°
2026-05-04 23:38 42.40856 -70.98392 750 ft 119 kts 204°
2026-05-04 23:38 42.40066 -70.98763 576 ft 119 kts 202°
2026-05-04 23:39 42.39290 -70.99144 438 ft 119 kts 203°
2026-05-04 23:39 42.38508 -70.99528 258 ft 117 kts 202°
2026-05-04 23:39 42.37735 -70.99907 111 ft 116 kts 201°
2026-05-04 23:39 42.36978 -71.00272 18 ft 109 kts 199°
2026-05-04 23:40 42.36379 -71.00565 17 ft 65 kts 199°
2026-05-04 23:40 42.36058 -71.00724 17 ft 35 kts 208°
2026-05-04 23:40 42.35941 -71.00875 20 ft 3 kts 229°